Location: Ridgway Nature & Science Center
(38.1460°N, 107.7553°W)
Time: 10:31:16
(UTC-06:00)

Hubble Space Telescope - Pass Details

Date: 10 August 2022
Orbit: 531 x 535 km, 28.5° (Epoch: 27 September)

Event Time Altitude Azimuth Distance (km) Brightness Sun altitude
Rises 21:02:04 0° 247° (WSW) 2,662 4.9 -10.1°
Reaches altitude 10° 21:04:43 10° 231° (SW) 1,772 3.7 -10.5°
Maximum altitude 21:07:49 21° 181° (S) 1,226 2.3 -11.1°
Enters shadow 21:09:56 15° 143° (SE) 1,499 2.5 -11.4°
